Frankfort, MI

4:26 AM EST on February 23, 2017 (GMT -0500)
Frankfort

Weather History for KFKS - November, 2012

Change the Weather History Date:

Friday, November 9, 2012

  Actual Average (KMBL) Record (KMBL)
Temperature  
Mean Temperature 44 °F -  
Max Temperature 47 °F 46 °F 69 °F (1999)
Min Temperature 43 °F 34 °F 12 °F (2003)
Degree Days  
Heating Degree Days 20    
Moisture  
Dew Point 40 °F    
Average Humidity 82    
Maximum Humidity 87    
Minimum Humidity 78    
Precipitation  
Precipitation 0.00 in - - ()
Sea Level Pressure  
Sea Level Pressure 30.09 in    
Wind  
Wind Speed 3 mph (ESE)    
Max Wind Speed 8 mph    
Max Gust Speed -    
Visibility 5 miles    
Events      
Averages and records for this station are not official NWS values.
T = Trace of Precipitation, MM = Missing Value Source: NWS Daily Summary

Daily Weather History Graph

Daily Weather History Graph

Search for Another Location

Airport or City:

Trip Planner

Search our weather history database for the weather conditions in past years. The results will help you decide how hot, cold, wet, or windy it might be!

Date:

Astronomy

Nov. 09, 2012 Rise Set
Actual Time 7:34 AM EST 5:22 PM EST
Civil Twilight 7:02 AM EST 5:53 PM EST
Nautical Twilight 6:27 AM EST 6:28 PM EST
Astronomical Twilight 5:53 AM EST 7:02 PM EST
Moon 2:21 AM EST (11/9) 2:45 PM EST (11/9)
Length of Visible Light 10h 50m
Length of Day
9h 48m
Waning Crescent, 23% of the Moon is Illuminated
Nov 9
Waning Crescent
Nov 13
New
Nov 20
First Quarter
Nov 28
Full
Dec 6
Last Quarter

Hourly Weather History & Observations

Time (EST) Temp. Windchill Dew Point Humidity Pressure Visibility Wind Dir Wind Speed Gust Speed Precip Events Conditions
12:15 AM 43.2 °F 38.4 °F 37.0 °F 79% 30.08 in 10.0 mi SSW 8.1 mph - N/A   Mostly Cloudy
12:35 AM 43.2 °F 39.0 °F 37.6 °F 81% 30.08 in 7.0 mi SW 6.9 mph - N/A   Scattered Clouds
12:55 AM 43.2 °F 39.0 °F 37.9 °F 82% 30.08 in 7.0 mi SW 6.9 mph - N/A   Scattered Clouds
1:16 AM 43.7 °F 40.3 °F 38.3 °F 81% 30.09 in 7.0 mi SSW 5.8 mph - N/A   Overcast
1:36 AM 43.9 °F 40.5 °F 38.7 °F 82% 30.08 in 7.0 mi SW 5.8 mph - N/A   Overcast
1:56 AM 43.9 °F 40.5 °F 38.7 °F 82% 30.08 in 7.0 mi SSW 5.8 mph - N/A   Overcast
2:16 AM 44.2 °F 41.0 °F 39.2 °F 82% 30.08 in 7.0 mi SSW 5.8 mph - N/A   Overcast
2:31 AM 44.2 °F 41.8 °F 39.0 °F 82% 30.08 in 7.0 mi SSW 4.6 mph - N/A   Overcast
2:52 AM 43.7 °F 42.1 °F 39.2 °F 84% 30.08 in 7.0 mi South 3.5 mph - N/A   Overcast
3:12 AM 43.5 °F 41.9 °F 39.2 °F 85% 30.08 in 7.0 mi SSW 3.5 mph - N/A   Overcast
3:32 AM 44.1 °F 42.5 °F 39.4 °F 84% 30.08 in 7.0 mi SSW 3.5 mph - N/A   Overcast
3:52 AM 44.1 °F 42.5 °F 39.6 °F 84% 30.08 in 7.0 mi SSW 3.5 mph - N/A   Overcast
4:13 AM 43.7 °F - 39.4 °F 85% 30.08 in 5.0 mi Calm Calm - N/A   Haze
4:33 AM 43.9 °F - 39.7 °F 85% 30.08 in 7.0 mi Calm Calm - N/A   Overcast
4:53 AM 44.1 °F - 39.7 °F 85% 30.08 in 7.0 mi Calm Calm - N/A   Overcast
5:13 AM 43.9 °F - 39.7 °F 85% 30.09 in 5.0 mi Calm Calm - N/A   Mostly Cloudy
5:33 AM 43.5 °F - 39.6 °F 86% 30.08 in 5.0 mi Calm Calm - N/A   Overcast
5:54 AM 44.1 °F - 40.3 °F 87% 30.09 in 5.0 mi Calm Calm - N/A   Overcast
6:14 AM 44.4 °F - 40.3 °F 85% 30.08 in 5.0 mi Calm Calm - N/A   Overcast
6:34 AM 44.2 °F - 40.5 °F 87% 30.09 in 5.0 mi Calm Calm - N/A   Overcast
6:54 AM 44.6 °F - 40.5 °F 85% 30.09 in 5.0 mi Calm Calm - N/A   Overcast
7:15 AM 44.2 °F - 40.5 °F 87% 30.09 in 5.0 mi Calm Calm - N/A   Overcast
7:35 AM 44.4 °F - 40.5 °F 86% 30.09 in 5.0 mi Calm Calm - N/A   Overcast
7:55 AM 43.9 °F - 40.3 °F 87% 30.09 in 4.0 mi Calm Calm - N/A   Overcast
8:15 AM 44.1 °F - 40.3 °F 87% 30.10 in 3.0 mi Calm Calm - N/A   Overcast
8:35 AM 44.4 °F - 40.6 °F 87% 30.10 in 3.0 mi Calm Calm - N/A   Overcast
8:56 AM 44.2 °F 42.7 °F 40.3 °F 86% 30.11 in 4.0 mi SE 3.5 mph - N/A   Overcast
9:16 AM 43.9 °F 42.3 °F 39.9 °F 86% 30.11 in 4.0 mi SE 3.5 mph - N/A   Overcast
9:36 AM 43.9 °F 42.3 °F 39.7 °F 85% 30.11 in 4.0 mi SE 3.5 mph - N/A   Overcast
9:56 AM 44.1 °F 42.5 °F 39.7 °F 85% 30.11 in 4.0 mi SE 3.5 mph - N/A   Overcast
10:11 AM 44.2 °F - 39.9 °F 85% 30.11 in 4.0 mi Calm Calm - N/A   Overcast
10:32 AM 44.2 °F 42.7 °F 39.7 °F 84% 30.10 in 4.0 mi ESE 3.5 mph - N/A   Overcast
10:52 AM 44.6 °F - 40.1 °F 84% 30.12 in 4.0 mi Calm Calm - N/A   Haze
11:12 AM 45.0 °F - 40.1 °F 83% 30.13 in 4.0 mi Calm Calm - N/A   Light Drizzle
11:32 AM 45.0 °F - 40.3 °F 84% 30.12 in 4.0 mi Calm Calm - N/A   Haze
11:53 AM 45.5 °F - 40.5 °F 83% 30.12 in 4.0 mi Calm Calm - N/A   Haze
12:13 PM 45.7 °F - 40.5 °F 82% 30.12 in 4.0 mi Calm Calm - N/A   Haze
12:33 PM 45.7 °F - 40.5 °F 82% 30.11 in 4.0 mi Calm Calm - N/A   Haze
12:53 PM 46.0 °F - 40.5 °F 81% 30.10 in 4.0 mi Calm Calm - N/A   Haze
1:13 PM 46.2 °F - 40.8 °F 81% 30.10 in 5.0 mi Calm Calm - N/A   Haze
1:54 PM 46.6 °F - 40.8 °F 80% 30.09 in 5.0 mi East 3.5 mph - N/A   Haze
2:14 PM 46.6 °F - 40.6 °F 80% 30.09 in 5.0 mi Calm Calm - N/A   Haze
2:34 PM 46.8 °F - 40.5 °F 79% 30.08 in 5.0 mi Calm Calm - N/A   Haze
2:55 PM 46.6 °F - 40.1 °F 78% 30.07 in 5.0 mi Calm Calm - N/A   Haze
3:15 PM 46.8 °F - 40.1 °F 78% 30.07 in 5.0 mi Calm Calm - N/A   Haze
3:35 PM 46.9 °F - 40.3 °F 78% 30.07 in 5.0 mi Calm Calm - N/A   Haze
3:55 PM 46.9 °F - 40.3 °F 78% 30.08 in 5.0 mi Calm Calm - N/A   Haze
4:15 PM 46.8 °F - 40.5 °F 79% 30.09 in 4.0 mi NE 3.5 mph - N/A   Haze
4:36 PM 46.6 °F - 40.3 °F 79% 30.09 in 5.0 mi Calm Calm - N/A   Haze
4:56 PM 46.6 °F - 40.1 °F 78% 30.08 in 5.0 mi ENE 3.5 mph - N/A   Haze
5:16 PM 46.4 °F 44.3 °F 40.1 °F 79% 30.08 in 5.0 mi ENE 4.6 mph - N/A   Haze
5:31 PM 46.4 °F 45.2 °F 40.3 °F 79% 30.09 in 7.0 mi NE 3.5 mph - N/A   Overcast
5:51 PM 46.4 °F 45.2 °F 40.3 °F 79% 30.09 in 7.0 mi NNE 3.5 mph - N/A   Overcast
6:12 PM 46.0 °F 44.8 °F 41.0 °F 83% 30.09 in 5.0 mi NE 3.5 mph - N/A   Haze
6:32 PM 46.4 °F - 41.0 °F 81% 30.10 in 7.0 mi Calm Calm - N/A   Overcast
6:52 PM 46.0 °F 43.9 °F 40.5 °F 81% 30.10 in 7.0 mi ENE 4.6 mph - N/A   Overcast
7:12 PM 46.0 °F - 40.5 °F 81% 30.10 in 7.0 mi Calm Calm - N/A   Overcast
7:32 PM 46.0 °F 44.8 °F 40.6 °F 81% 30.10 in 5.0 mi East 3.5 mph - N/A   Haze
7:53 PM 45.9 °F 44.6 °F 40.6 °F 82% 30.10 in 5.0 mi East 3.5 mph - N/A   Haze
8:13 PM 45.9 °F 43.6 °F 40.5 °F 81% 30.10 in 5.0 mi ENE 4.6 mph - N/A   Haze
8:53 PM 45.7 °F 44.4 °F 40.3 °F 81% 30.11 in 5.0 mi East 3.5 mph - N/A   Haze
9:13 PM 45.7 °F 43.4 °F 40.1 °F 81% 30.11 in 5.0 mi East 4.6 mph - N/A   Haze
9:33 PM 45.7 °F 44.4 °F 40.1 °F 81% 30.11 in 5.0 mi East 3.5 mph - N/A   Haze
9:53 PM 45.7 °F 43.4 °F 40.1 °F 81% 30.11 in 5.0 mi East 4.6 mph - N/A   Haze
10:13 PM 45.7 °F 42.7 °F 40.1 °F 81% 30.11 in 5.0 mi East 5.8 mph - N/A   Haze
10:34 PM 45.5 °F 43.2 °F 40.1 °F 81% 30.11 in 5.0 mi East 4.6 mph - N/A   Haze
10:54 PM 45.5 °F 42.5 °F 40.1 °F 81% 30.11 in 5.0 mi East 5.8 mph - N/A   Haze
11:14 PM 45.5 °F 43.2 °F 40.1 °F 81% 30.10 in 5.0 mi East 4.6 mph - N/A   Haze
11:34 PM 45.5 °F 43.2 °F 40.1 °F 81% 30.10 in 5.0 mi East 4.6 mph - N/A   Haze
11:54 PM 45.5 °F 42.5 °F 40.3 °F 82% 30.10 in 5.0 mi ENE 5.8 mph - N/A   Haze